GFSFLT1_850_temp_096.txt.gz
Temp
23 22 21 20 19 17 17 16 15 14 11 10 10 10 10 11 11 11 11 11 11 10 10 11 12 12 11 11 10 11 11 10
23 21 21 20 18 17 16 16 15 14 11 10 9 10 10 10 11 11 11 11 11 10 11 10 11 12 11 11 10 10 11 10
20 20 20 20 19 17 16 15 15 14 12 9 9 9 10 10 10 10 10 11 11 11 10 10 10 10 11 11 11 10 10 10
18 19 19 19 18 17 16 15 15 13 11 9 9 10 9 9 9 9 10 10 11 10 10 11 9 10 11 10 10 10 10 10
20 18 18 19 17 16 16 15 14 13 11 9 9 9 9 9 9 9 10 10 10 10 10 10 9 10 10 10 10 10 10 10
19 18 19 18 17 16 15 14 13 13 10 9 8 9 9 9 9 8 9 10 10 10 10 9 9 10 10 10 10 10 11 11
19 18 18 18 16 15 14 13 13 11 10 9 8 8 8 8 8 8 8 8 8 8 9 8 9 9 9 10 10 10 10 11
17 15 17 17 16 15 14 12 12 11 9 9 8 8 8 8 8 8 8 8 8 8 8 8 8 8 9 8 10 10 10 10
16 17 18 18 16 15 14 12 12 11 9 9 9 8 8 8 8 9 9 9 9 9 10 9 9 8 8 8 9 11 10 10
16 15 18 18 17 16 15 13 12 12 10 10 9 8 9 9 9 9 9 9 9 9 8 8 8 8 8 9 9 10 10 10
14 15 18 18 18 16 14 14 14 13 10 9 10 10 9 10 9 9 9 9 8 7 8 8 8 8 8 8 9 9 9 10
15 17 19 18 17 16 15 14 13 12 11 9 9 9 9 9 10 9 9 9 8 8 8 8 8 7 8 8 9 9 9 9
16 15 15 16 17 17 16 14 13 13 12 9 9 9 9 9 9 9 9 9 8 8 8 8 8 8 9 9 9 9 9 10
18 16 16 16 16 16 15 14 13 13 13 9 8 8 9 9 9 9 9 9 9 9 9 8 9 9 9 9 9 9 9 10
18 16 15 16 16 16 16 15 14 13 13 11 9 8 8 8 9 9 8 8 9 8 8 9 9 9 9 9 9 10 10 10
18 16 15 14 14 15 16 15 15 14 13 13 9 9 8 8 8 8 8 8 8 9 8 8 9 9 9 9 10 9 10 10
15 16 14 14 14 14 15 16 15 14 14 13 13 10 9 9 8 8 8 8 8 9 9 9 9 9 9 9 9 9 9 10
11 10 11 13 13 12 13 13 12 13 13 13 13 12 11 9 9 8 8 8 8 9 9 9 9 10 10 10 10 10 10 10
9 10 12 12 12 12 12 13 16 14 13 13 12 12 11 10 9 9 9 8 8 8 9 9 9 10 10 10 10 9 9 9

GFSFLT1_850_temp_099.txt.gz
Temp
22 21 21 22 21 20 19 17 16 15 14 14 13 10 10 11 11 11 11 11 11 10 10 9 10 9 10 11 10 10 10 10
22 22 20 21 21 19 18 17 15 14 13 13 13 10 10 10 10 11 11 11 10 10 10 10 9 9 11 11 10 10 10 10
20 21 19 22 22 19 17 16 15 15 13 13 13 11 9 10 10 11 11 10 11 10 10 10 10 10 11 12 10 10 10 10
20 20 18 21 20 19 17 16 15 14 13 12 12 9 9 10 10 10 10 10 10 10 10 10 10 10 10 11 10 10 10 10
20 19 17 20 20 18 17 16 15 14 13 12 12 11 10 10 9 10 10 10 10 11 10 10 10 10 11 11 10 10 10 10
20 19 20 19 19 18 17 15 14 14 13 12 11 10 9 9 9 9 10 10 10 10 10 10 9 8 9 11 10 10 10 10
20 20 17 17 14 16 16 15 14 13 13 11 10 10 9 9 8 8 9 9 9 9 10 10 9 7 8 10 10 10 10 10
19 17 17 16 16 14 15 15 14 13 13 11 9 9 9 9 9 8 8 9 9 9 9 9 8 7 8 9 9 9 9 10
18 19 18 16 15 15 15 15 14 13 13 11 8 8 8 9 8 8 8 8 9 9 9 9 8 7 8 8 8 8 8 8
16 19 18 16 16 16 16 15 14 13 12 11 9 9 9 9 8 8 8 8 8 8 8 8 7 7 7 7 8 7 8 8
16 14 15 15 16 15 15 15 15 14 12 11 10 10 10 10 9 8 8 8 8 8 8 8 7 8 8 8 8 7 8 8
14 12 11 11 13 15 15 15 14 13 12 11 10 10 10 10 10 9 9 9 9 8 8 8 9 9 8 7 8 8 8 9
14 14 12 11 11 14 15 15 13 13 12 11 10 10 10 10 10 9 9 9 9 8 8 8 8 8 8 8 8 7 8 9
13 15 14 14 12 12 15 15 14 13 12 12 10 10 10 10 10 10 9 9 9 9 8 7 7 7 8 8 8 8 9 9
12 15 14 13 14 12 13 15 14 13 12 12 11 10 10 10 10 10 10 9 9 8 8 8 8 8 8 8 8 8 8 9
8 12 12 12 12 12 11 10 12 11 11 11 11 10 9 9 9 9 9 9 9 9 8 9 9 8 8 8 8 8 9 9
7 8 10 10 11 12 11 10 11 12 11 10 10 10 9 9 8 9 9 9 9 8 8 8 8 8 8 9 9 9 9 9
8 7 7 9 10 10 10 11 11 11 11 11 11 10 9 8 8 8 8 8 8 8 8 8 8 8 8 9 9 8 9 9
6 7 9 9 9 10 11 11 10 11 11 10 10 10 10 9 8 8 8 8 8 8 8 8 8 8 9 9 9 9 9 9

GFSFLT1_850_temp_102.txt.gz
Temp
20 20 20 21 21 21 19 19 18 17 16 14 13 13 12 11 11 12 11 11 11 11 10 10 10 10 9 9 10 9 10 10
21 21 21 21 20 20 19 19 18 16 16 15 14 13 11 10 11 12 11 11 11 11 10 10 10 9 9 8 9 10 9 10
19 19 20 21 20 19 19 19 17 17 16 15 14 14 11 10 10 11 11 11 11 10 10 10 10 8 8 9 10 9 9 10
17 18 18 19 20 19 20 18 17 17 16 15 14 13 11 10 9 10 10 10 10 10 10 10 9 10 9 8 9 9 9 10
16 17 18 19 21 18 19 16 16 16 16 15 14 13 13 11 9 9 10 10 10 10 10 10 9 9 8 8 9 9 9 10
15 16 18 19 18 18 18 15 15 16 16 14 13 12 12 11 10 9 9 10 10 10 10 10 10 9 9 9 9 9 10 10
14 14 15 17 17 17 15 14 15 14 14 14 13 12 12 8 8 9 9 9 10 9 10 10 9 8 8 9 9 9 10 10
12 13 13 16 17 17 14 14 15 14 13 13 12 12 11 10 9 9 8 9 10 9 9 10 10 9 9 8 9 9 9 10
12 12 13 14 17 17 15 14 15 15 13 13 12 11 10 10 9 9 8 9 9 9 9 9 9 9 8 7 7 9 9 9
11 12 14 14 16 17 16 13 14 15 14 13 12 11 10 9 8 8 8 8 8 8 9 9 9 9 7 6 7 7 7 8
10 11 12 12 12 12 10 11 14 15 14 13 12 11 10 9 9 9 9 8 8 8 8 8 8 8 7 6 6 6 7 7
10 11 11 12 12 11 10 10 12 14 14 13 12 11 10 10 9 9 10 8 8 8 8 8 8 7 7 6 7 7 7 7
10 10 9 11 12 11 10 9 11 13 14 13 12 11 10 10 10 9 9 10 8 8 8 7 7 7 7 7 7 8 8 7
9 9 10 12 11 10 9 9 10 11 12 13 12 10 10 10 10 9 9 10 9 8 8 8 7 7 7 7 7 8 7 7
7 8 10 11 10 10 10 10 10 11 10 11 12 10 10 9 10 9 9 9 9 9 8 8 8 7 7 7 7 7 7 7
5 7 7 9 9 10 9 10 10 10 11 10 10 11 10 9 9 9 9 9 9 10 9 9 8 7 7 7 7 7 7 7
4 5 7 8 8 9 10 11 11 10 10 9 9 9 9 9 9 9 9 9 9 9 9 9 8 8 7 7 8 8 7 7
3 3 5 6 7 9 9 9 10 10 10 9 9 9 9 9 9 8 8 8 9 9 9 8 8 8 9 8 8 8 8 8
2 2 3 4 6 8 9 9 10 10 10 10 10 9 9 9 9 8 8 8 8 8 8 8 8 8 8 8 8 8 8 8

GFSFLT1_850_temp_105.txt.gz
Temp
20 19 19 20 20 21 21 19 18 17 16 16 15 14 14 13 13 12 12 12 11 11 11 11 10 10 10 10 10 9 9 10
19 18 19 19 20 21 21 20 18 16 16 16 15 15 14 13 12 12 11 11 11 11 11 10 10 10 10 8 9 10 9 9
17 18 18 18 19 21 20 19 18 17 16 16 15 15 14 14 12 12 11 11 11 11 11 10 10 10 10 8 8 8 9 9
16 17 17 18 19 19 19 18 18 16 15 15 15 15 13 13 11 11 11 11 10 11 10 10 10 10 9 9 8 9 9 9
15 16 16 17 17 17 17 17 17 16 15 15 15 16 15 15 13 10 10 10 10 11 10 10 10 8 8 8 8 9 9 9
13 13 14 15 17 17 16 17 15 15 15 15 15 15 15 14 12 11 10 10 10 10 10 10 9 9 9 10 9 8 9 8
14 14 14 15 16 16 14 15 13 13 15 15 16 15 14 13 12 11 9 9 10 9 9 10 10 9 10 9 8 8 8 8
12 12 13 14 13 13 13 13 11 12 14 14 15 15 14 12 11 9 9 9 9 10 10 10 10 9 9 8 8 7 8 7
12 13 12 12 12 12 12 11 10 10 14 14 15 14 13 12 11 10 9 8 8 9 9 9 10 9 9 8 8 7 8 8
11 12 12 11 11 10 10 9 10 10 12 14 14 14 13 11 10 9 9 8 8 9 9 10 9 9 8 7 7 8 8 8
11 11 11 10 9 9 9 9 10 10 12 12 13 14 13 11 9 9 9 8 8 8 8 8 9 9 9 8 7 6 7 7
10 10 11 8 8 9 9 9 9 10 10 12 13 13 12 10 9 9 9 9 8 8 8 8 9 9 8 8 8 6 7 6
8 10 8 8 9 9 9 9 9 9 10 12 13 12 11 10 9 9 9 10 8 8 8 8 8 8 8 8 7 7 6 6
8 8 7 7 9 9 9 9 8 9 10 12 13 11 10 10 9 9 9 10 8 8 9 9 9 8 8 7 7 6 5 6
7 7 6 5 9 8 9 8 8 9 10 11 11 11 10 10 9 9 9 9 8 8 8 8 8 7 7 7 6 6 6 7
6 6 4 2 7 8 9 9 8 8 9 10 10 11 10 10 9 9 9 9 9 8 8 8 7 7 8 7 7 6 6 6
3 2 1 1 5 8 8 8 8 9 9 9 9 10 10 9 9 9 9 9 8 8 8 8 8 7 7 7 7 7 7 7
1 3 2 2 3 6 8 8 9 9 9 10 10 10 9 10 9 8 8 9 8 8 8 9 9 9 8 8 7 7 7 7
0 1 3 3 3 5 8 8 9 9 9 9 9 9 9 9 9 9 8 8 9 9 9 9 9 8 8 8 8 7 7 7

GFSFLT1_850_temp_108.txt.gz
Temp
21 21 19 19 19 19 18 17 18 16 13 15 17 17 16 15 15 15 14 13 13 12 12 11 12 11 10 10 10 9 10 9
20 18 18 18 19 20 20 19 18 15 14 15 16 17 16 15 15 14 13 13 13 12 11 11 11 11 10 10 9 9 9 9
19 17 17 16 18 17 18 18 16 15 14 15 15 16 16 15 15 14 13 13 11 12 11 11 11 10 10 9 9 10 9 9
18 17 16 16 16 16 16 15 14 13 12 12 12 15 14 14 15 13 12 12 10 11 11 11 11 10 10 9 9 9 8 8
17 16 16 16 15 15 15 14 13 12 12 12 12 15 15 15 15 14 11 12 11 11 11 10 11 10 10 10 9 8 9 8
16 16 15 15 15 14 14 13 12 11 11 12 12 12 12 12 11 12 12 11 11 11 10 10 10 10 10 10 8 8 8 8
16 16 15 15 15 14 12 12 12 10 11 12 11 12 12 12 13 14 13 11 10 10 10 10 10 10 10 9 8 8 8 9
15 15 15 14 14 13 13 11 11 10 10 12 11 12 12 12 13 12 13 10 10 10 10 10 9 10 10 9 8 8 9 9
15 15 14 14 13 13 13 12 10 10 10 11 11 10 11 11 12 13 13 10 9 10 10 10 10 9 9 9 8 8 9 9
14 14 13 13 12 11 12 11 10 10 9 11 10 12 11 11 10 11 10 9 9 9 9 9 9 9 9 9 9 8 8 8
13 12 11 11 10 10 10 11 9 9 10 10 10 11 10 10 9 12 11 11 9 8 9 9 9 9 9 9 8 8 8 8
12 10 9 9 9 11 11 10 9 9 9 10 11 10 10 10 9 11 11 10 8 8 9 9 9 9 9 9 9 7 7 7
11 9 7 7 9 9 9 9 9 9 9 10 10 10 10 10 9 11 11 10 8 9 9 8 8 9 9 9 8 7 7 7
9 8 6 5 9 9 9 9 9 9 9 9 10 11 11 10 9 11 10 10 8 9 9 9 8 8 8 8 8 7 7 6
6 5 5 4 8 6 7 9 9 9 9 9 9 9 11 10 10 11 10 10 9 10 10 10 9 8 7 7 7 7 7 6
4 3 3 3 7 5 8 8 8 9 8 8 9 9 9 8 9 10 10 9 9 9 9 9 9 9 8 8 7 7 7 6
3 1 3 2 6 4 6 8 8 8 8 8 9 9 8 8 9 9 9 9 8 8 8 9 9 8 9 8 7 7 7 6
1 -0 1 2 4 2 4 8 8 8 9 9 9 8 9 9 9 8 9 8 8 8 8 8 8 9 9 8 8 7 7 7
-1 -1 -0 2 3 2 1 8 8 8 8 8 8 9 9 9 9 9 9 8 8 8 8 8 8 8 8 8 8 7 7 7

GFSFLT1_850_temp_114.txt.gz
Temp
23 24 24 24 24 24 23 22 21 20 19 18 16 15 15 15 15 15 15 16 16 15 15 14 13 13 12 12 12 12 12 12
24 23 23 23 23 23 22 21 20 19 18 17 16 16 15 15 14 14 14 15 15 15 15 14 12 13 13 12 12 11 11 11
23 23 22 22 21 20 20 20 20 19 18 18 17 16 15 14 14 14 14 14 15 15 15 15 12 11 12 12 12 11 10 10
23 23 21 20 19 19 19 19 19 19 18 17 16 16 15 14 13 13 13 13 13 13 15 14 12 12 12 10 11 11 11 10
23 23 21 19 19 19 18 17 18 18 18 18 17 16 16 15 13 12 13 13 13 12 12 13 13 11 11 10 11 11 10 10
22 21 20 19 19 18 17 16 16 16 17 17 16 16 16 13 12 11 12 12 13 13 12 12 12 12 11 10 11 10 10 10
20 20 19 19 19 17 17 16 16 16 16 16 16 15 15 13 12 12 12 11 12 13 12 11 12 11 11 10 10 11 10 10
19 19 19 17 17 16 16 15 15 15 15 15 15 15 14 13 13 13 13 12 12 12 11 11 10 10 10 11 10 10 10 10
18 18 16 15 14 14 13 14 13 13 14 15 15 14 13 12 13 13 14 13 12 12 11 11 10 10 11 10 10 10 9 9
17 16 14 13 12 11 10 10 11 11 13 14 14 14 13 12 13 13 14 13 11 12 11 10 10 10 10 9 10 10 9 9
16 15 13 12 11 10 9 9 9 10 12 13 12 13 13 12 12 12 13 13 11 11 11 10 9 11 9 10 9 9 9 9
13 13 12 11 10 9 8 7 8 10 11 12 12 13 12 11 12 12 12 12 11 10 10 9 10 10 10 10 10 9 9 9
11 10 9 8 8 8 6 7 7 9 10 11 13 12 11 11 12 12 12 12 10 10 10 9 10 9 9 10 9 9 9 9
8 8 7 6 5 5 4 6 6 7 9 10 10 11 10 10 11 11 12 10 9 9 10 9 9 9 9 9 9 9 9 8
6 5 4 3 3 2 2 5 6 7 8 9 9 10 10 10 11 11 11 10 10 9 10 9 9 9 9 9 9 9 8 8
4 3 2 1 1 1 2 4 4 6 8 9 9 9 9 9 10 10 10 9 9 9 9 9 10 10 9 8 8 8 8 8
2 0 -1 -1 -0 1 -0 1 3 5 7 9 9 9 9 10 10 10 10 9 9 9 9 9 10 10 9 9 8 8 7 7
-1 -2 -2 -2 -1 -0 -1 -0 1 4 7 8 9 9 9 9 9 9 9 8 8 9 8 9 9 9 9 9 9 8 7 7
-2 -3 -2 -2 -1 -0 -1 -1 0 2 7 8 8 8 9 9 9 8 8 8 8 8 8 9 9 9 8 8 8 7 7 7

GFSFLT1_850_temp_117.txt.gz
Temp
23 23 23 23 24 24 23 22 22 21 20 20 19 18 16 16 16 16 15 15 15 14 14 14 13 13 13 13 12 12 12 12
23 23 23 23 23 24 23 22 21 20 19 18 17 19 18 16 16 16 16 15 14 13 13 13 13 13 13 13 12 12 11 11
23 23 23 23 23 22 21 20 20 20 19 18 18 19 19 17 16 15 15 15 14 14 14 14 13 13 12 12 12 12 12 11
23 23 23 22 22 21 21 19 18 19 19 18 18 17 16 16 15 14 14 14 14 13 14 13 13 12 12 12 12 11 11 10
23 22 22 21 21 20 20 19 19 18 17 17 18 18 18 17 16 15 14 14 14 13 13 13 13 12 11 10 10 10 11 10
22 21 20 19 19 18 18 18 18 18 18 17 16 17 17 16 16 15 14 14 13 13 12 12 12 12 11 11 10 10 10 10
20 19 18 17 17 16 16 16 16 16 16 15 16 15 17 16 16 15 14 13 13 13 12 12 12 11 12 11 10 10 10 10
18 17 16 15 15 15 15 15 16 15 15 15 14 14 15 15 15 15 14 13 12 12 12 12 12 12 11 11 10 10 10 10
16 15 15 15 15 15 15 15 15 14 14 15 14 13 13 14 14 14 13 13 13 12 12 12 11 11 11 10 9 10 10 10
14 13 13 14 14 13 14 15 14 13 12 13 13 14 13 13 14 14 13 13 14 13 12 12 11 11 10 9 9 9 9 9
11 11 11 12 12 12 13 12 11 11 10 11 12 12 12 12 13 13 13 12 13 13 12 11 11 10 10 9 9 9 9 9
9 9 10 10 10 10 9 9 9 9 9 11 11 11 11 12 12 12 13 12 13 12 13 11 10 10 10 9 9 9 9 9
8 7 7 8 7 7 7 7 7 7 8 9 9 10 12 13 11 12 12 12 12 12 12 12 10 9 9 9 9 10 9 9
4 5 5 5 6 7 7 7 7 7 7 8 8 10 10 11 11 12 12 12 12 12 12 10 9 9 9 9 9 9 9 9
2 2 3 3 4 5 5 5 6 6 6 7 8 9 10 10 10 11 11 12 11 11 11 10 9 9 8 9 9 9 9 9
1 0 1 2 3 3 4 4 5 5 5 5 7 8 9 9 9 10 10 11 10 11 11 9 9 9 8 8 8 8 9 9
1 -1 -1 -1 -0 1 2 2 2 2 3 3 6 8 9 9 9 9 10 10 11 11 10 9 9 9 9 8 8 8 8 8
-1 -2 -2 -2 -1 -0 0 0 1 1 1 3 5 8 9 9 9 9 10 10 11 10 9 8 9 8 8 8 8 8 8 7
-2 -2 -2 -1 -1 -0 -0 -0 -0 0 0 2 3 7 9 9 9 9 9 10 9 9 9 8 8 8 8 8 8 7 7 7

GFSFLT1_850_temp_120.txt.gz
Temp
22 23 23 23 23 23 23 22 22 22 21 20 19 19 19 18 18 18 17 16 16 16 16 15 14 14 14 13 13 12 12 12
23 22 23 23 23 23 23 22 22 21 20 19 18 17 18 17 18 18 17 16 15 16 15 15 13 13 13 13 12 12 11 11
23 23 22 22 23 23 23 22 22 22 21 20 18 18 17 17 17 18 16 16 15 15 15 14 13 13 13 12 12 12 11 11
22 23 23 22 22 22 22 22 22 21 21 19 19 18 17 17 16 16 17 15 15 14 14 14 13 13 13 12 12 11 11 11
22 22 21 21 20 20 20 19 18 18 18 18 18 18 17 18 18 17 17 16 14 14 13 13 13 12 12 12 12 11 11 10
17 18 17 17 16 16 16 16 16 16 16 16 16 16 16 17 17 17 17 15 15 15 14 14 13 12 12 12 11 11 10 10
16 15 15 15 15 16 16 16 16 15 16 16 15 15 14 14 15 16 16 15 15 15 14 14 13 13 12 12 12 11 10 10
16 15 15 15 15 15 15 16 15 15 15 15 15 14 14 14 13 14 15 15 14 14 14 14 13 13 12 11 11 11 10 10
15 13 14 13 14 15 15 16 16 15 15 15 14 14 14 14 13 13 13 14 14 14 13 13 12 12 12 12 11 11 10 10
8 10 11 12 13 14 15 15 16 16 15 15 15 14 14 14 14 13 13 13 14 14 13 13 13 12 12 12 11 11 10 9
6 7 8 9 11 11 11 12 13 14 14 13 13 13 13 13 13 12 13 13 13 13 13 13 13 12 12 11 11 11 9 9
5 6 7 7 8 10 10 11 11 12 12 12 12 13 13 12 12 12 12 13 12 12 13 13 12 12 12 11 11 10 9 9
4 5 6 7 7 8 10 10 9 9 10 10 11 12 11 11 10 12 12 13 12 12 12 13 12 12 12 11 10 10 10 9
3 5 8 8 7 7 6 6 6 7 8 9 10 10 10 9 10 11 12 12 12 12 12 12 13 11 11 10 10 10 9 9
-1 1 3 3 4 5 5 5 5 5 6 6 7 7 8 9 10 10 10 11 11 11 12 12 11 11 10 9 10 9 9 9
-2 -2 1 2 3 3 3 3 3 4 4 4 5 5 7 8 8 9 9 10 10 10 11 11 11 11 10 9 9 9 9 9
-3 -1 0 1 1 1 1 2 2 2 3 3 3 4 5 7 8 9 9 9 10 10 11 11 10 10 9 9 9 9 9 9
-3 -3 -2 -1 -0 0 0 0 0 1 2 2 3 3 5 7 8 9 9 9 9 10 10 12 10 10 9 8 8 8 8 8
-3 -3 -1 -1 -0 0 -0 0 1 1 1 1 2 3 4 6 7 9 9 9 9 10 10 9 10 9 8 8 8 8 8 8

GFSFLT1_850_temp_123.txt.gz
Temp
22 22 22 21 21 21 21 21 22 22 21 20 20 19 19 19 18 18 17 17 17 17 17 16 15 14 13 13 13 13 13 13
22 22 22 22 22 22 21 22 22 22 21 20 19 20 19 18 18 17 16 16 16 16 16 15 15 13 13 13 13 12 12 11
21 22 22 22 22 22 22 22 22 22 22 22 20 20 20 19 18 18 17 16 16 16 15 15 14 13 13 12 12 12 12 12
21 21 22 22 22 22 22 22 22 22 21 20 19 17 18 18 17 18 17 17 16 15 15 15 14 14 14 13 13 12 12 12
20 19 20 20 20 21 21 20 19 19 18 16 17 17 18 18 18 18 18 17 16 15 15 14 14 14 13 13 13 13 12 12
18 17 16 16 16 17 17 16 15 15 15 14 16 17 17 17 17 17 17 17 16 15 15 14 14 14 13 13 13 12 12 12
12 13 13 13 13 13 13 13 13 13 14 15 16 17 16 16 17 16 16 16 16 15 15 14 14 14 14 13 12 12 12 12
8 10 12 12 13 13 14 14 14 14 14 14 15 15 15 16 15 15 15 15 14 15 15 15 14 14 14 14 14 13 12 12
6 7 10 11 13 13 14 14 15 15 15 15 15 15 15 14 14 15 14 14 14 13 14 14 14 13 13 13 13 13 13 11
5 6 7 9 11 12 13 14 14 15 15 14 14 14 14 15 15 15 15 14 14 14 14 13 13 13 13 12 12 12 12 12
4 6 6 8 9 10 11 13 13 13 13 13 12 12 13 13 14 14 14 13 14 14 14 13 13 13 13 12 12 12 11 11
2 3 5 5 7 8 10 12 13 14 13 12 12 12 12 12 13 14 14 13 13 13 13 13 12 13 13 13 12 11 12 11
1 3 5 7 7 7 7 9 11 12 12 12 12 12 12 13 13 12 12 12 12 12 13 12 12 12 13 12 12 12 11 11
-0 2 2 2 2 3 4 5 6 7 8 9 9 10 11 11 12 11 11 10 10 12 12 12 12 12 13 12 12 12 11 11
-1 -0 1 2 2 3 4 6 6 6 6 7 8 9 9 10 10 9 9 10 10 10 11 11 11 12 12 13 12 11 11 11
0 0 2 2 3 3 3 3 4 4 5 5 5 6 6 7 6 7 8 9 10 10 10 10 11 11 12 12 11 10 10 10
-3 -3 -2 -2 0 1 1 3 3 3 2 2 3 3 4 4 5 5 7 9 9 9 10 10 11 10 11 11 11 10 9 9
-4 -4 -3 -2 -2 -1 -0 0 1 1 1 1 2 2 3 4 5 6 7 8 9 9 10 9 9 10 11 11 10 9 9 9
-5 -4 -2 -1 -1 0 0 0 0 0 -0 0 0 1 2 3 4 5 7 8 8 9 9 9 9 10 10 10 8 8 9 9

GFSFLT1_850_temp_129.txt.gz
Temp
12 14 15 16 16 18 18 18 20 19 19 19 18 19 19 20 20 20 20 19 19 18 18 17 16 16 15 15 14 13 14 13
11 11 15 15 16 17 18 18 18 19 18 19 19 20 19 19 19 19 19 19 19 18 17 17 17 17 16 15 14 13 13 12
10 11 12 16 16 15 17 18 18 19 19 19 19 19 19 19 19 19 19 18 18 18 18 17 17 16 16 15 14 13 12 13
9 10 11 15 15 16 17 18 19 19 19 19 18 18 17 18 18 18 18 18 17 17 17 17 17 16 16 15 14 13 13 13
9 10 11 13 14 16 17 17 17 18 19 18 19 20 20 20 19 18 18 17 17 16 16 16 16 16 16 15 14 13 13 13
10 10 11 11 14 15 15 15 14 15 17 18 18 18 18 18 18 16 17 17 16 16 15 13 14 15 15 15 14 14 13 13
8 6 6 9 11 13 14 15 14 14 14 15 14 16 16 15 16 16 16 16 16 16 15 15 11 12 14 15 15 14 14 14
2 2 3 5 7 9 10 12 13 12 13 14 14 14 14 13 14 14 16 16 15 17 16 15 14 14 14 15 15 15 14 13
0 0 1 1 2 8 9 10 10 11 12 12 13 13 13 13 13 13 14 14 15 15 16 16 15 15 14 14 15 14 14 14
-1 -1 1 -0 2 6 8 8 9 10 10 11 12 11 12 12 13 14 14 15 15 15 16 16 16 14 14 15 15 14 14 14
-1 -1 -1 -1 3 4 5 7 7 9 10 11 11 12 12 12 13 14 15 15 15 15 15 15 14 14 13 13 13 13 13 13
-3 -3 -2 -1 1 3 4 5 5 8 8 10 12 10 12 14 13 14 15 15 15 15 15 15 15 14 14 14 12 13 13 13
-3 -3 -2 -2 -2 -0 1 3 4 5 5 7 9 11 12 12 13 13 13 14 14 14 14 14 14 14 13 14 11 12 12 12
-4 -3 -3 -3 -3 -2 -2 0 3 4 4 5 6 8 9 10 11 10 11 11 11 12 13 13 13 13 13 13 12 10 11 12
-5 -5 -5 -3 -4 -4 -1 4 6 6 6 6 5 8 9 9 9 9 10 10 11 11 11 12 13 13 12 11 10 9 11 11
-5 -5 -4 -4 -1 1 0 1 3 3 3 3 4 7 7 7 9 9 9 9 9 9 10 10 10 9 9 9 9 9 10 11
-6 -5 -4 -3 -2 -2 -1 -1 0 1 2 2 5 5 5 6 6 6 6 7 7 7 8 8 8 8 9 9 9 9 9 10
-6 -5 -4 -4 -2 -3 -2 -1 1 2 2 1 2 3 4 5 5 6 6 6 4 5 5 5 5 7 8 9 9 9 10 10
-6 -5 -5 -5 -4 -3 -4 -3 -1 -1 -0 -0 1 2 3 3 4 3 2 2 2 3 5 6 6 7 8 9 9 10 10 9

GFSFLT1_850_temp_132.txt.gz
Temp
14 14 15 15 16 17 17 17 14 15 18 19 16 14 14 14 15 18 18 18 19 18 17 17 17 14 15 15 15 13 13 13
14 14 13 13 14 15 16 17 15 13 14 17 17 16 17 14 14 17 17 19 18 18 18 18 17 14 14 16 15 15 13 12
14 13 13 13 13 14 15 16 16 14 14 16 19 19 18 17 17 18 19 19 18 18 18 14 15 14 13 15 15 14 13 13
13 13 13 12 12 12 13 16 17 15 14 14 16 16 15 14 14 14 14 16 18 18 17 14 13 14 13 15 15 13 13 13
10 11 12 12 12 12 13 15 16 16 14 14 15 17 16 16 16 14 14 13 14 16 16 14 15 16 15 14 14 14 13 13
8 12 12 12 12 12 13 15 16 16 15 14 14 16 17 16 15 14 13 14 13 14 14 13 15 14 14 13 13 13 14 14
2 3 7 9 9 11 12 13 16 16 14 14 14 15 15 15 14 14 13 14 16 17 16 16 14 13 13 13 14 13 13 13
-0 0 1 2 4 7 8 11 13 14 14 14 14 14 14 14 14 14 15 15 15 15 16 16 16 15 14 15 15 14 13 13
-2 -1 -1 -0 1 2 4 7 11 12 13 13 14 14 16 15 13 16 16 15 14 13 14 15 14 14 15 15 14 14 14 14
-3 -3 -2 -1 -1 -0 1 3 6 9 10 11 11 12 13 13 13 13 12 12 13 12 13 13 14 15 14 15 14 16 15 15
-4 -4 -3 -3 -2 -2 -1 1 4 5 7 9 8 10 11 12 12 12 12 12 13 14 14 15 15 14 14 14 14 15 14 13
-4 -4 -4 -4 -3 -3 -2 0 4 5 2 5 9 10 10 10 10 11 11 12 13 13 13 14 14 14 14 13 14 14 13 13
-5 -5 -5 -4 -5 -4 -1 -0 3 5 4 7 7 7 8 10 10 11 11 12 12 14 14 14 14 13 14 13 13 13 11 12
-4 -5 -5 -3 -3 -3 -2 -0 2 4 5 5 7 7 7 8 9 10 10 11 11 13 13 14 14 13 13 13 12 11 10 10
-5 -5 -5 -3 -2 -3 -2 -0 1 2 4 4 5 8 10 11 12 12 11 10 11 11 12 12 12 12 12 12 10 9 9 9
-5 -5 -6 -4 -3 -2 -2 -1 -1 -2 -0 3 3 6 7 6 8 9 8 8 9 10 11 11 11 10 9 9 9 9 8 9
-5 -6 -6 -6 -6 -3 -3 0 -2 -2 2 4 2 5 6 5 7 7 6 6 7 7 7 7 8 7 5 6 6 7 8 9
-6 -6 -7 -7 -7 -6 -4 -2 -3 -2 -1 -2 0 3 5 6 6 5 3 3 2 2 3 4 5 6 6 6 6 7 8 9
-7 -7 -7 -8 -7 -6 -6 -7 -6 -5 -6 -4 -1 -1 -0 2 2 1 0 -1 -0 1 2 2 2 4 5 5 6 7 9 9

GFSFLT1_850_temp_135.txt.gz
Temp
17 17 17 17 17 17 17 17 18 17 16 14 14 15 15 15 15 15 15 15 15 15 15 15 15 15 14 14 15 15 15 15
12 13 16 16 15 15 15 16 17 17 16 15 14 15 15 15 15 15 15 16 14 15 15 14 14 15 14 14 14 14 14 14
7 8 10 12 14 15 15 15 15 16 16 15 14 14 15 16 16 15 15 15 15 14 14 14 15 14 15 15 13 13 13 13
4 5 7 9 11 13 14 14 14 15 16 16 15 14 15 14 16 16 15 15 15 16 16 14 14 14 15 15 14 13 13 13
1 1 3 6 8 13 14 14 14 14 16 17 15 14 14 14 15 17 15 15 16 18 16 14 14 14 14 14 13 13 13 12
0 -1 0 3 4 8 12 14 13 14 15 16 16 14 15 16 15 17 15 14 15 17 17 16 14 14 14 13 13 13 13 13
-1 -2 -2 -1 1 6 8 11 13 13 14 16 16 15 15 16 16 16 16 15 15 14 15 15 14 13 13 14 15 14 12 13
-2 -3 -2 -2 -1 0 4 6 8 11 13 14 15 16 15 16 16 16 15 14 14 14 14 14 14 13 13 15 16 17 16 14
-3 -4 -2 -2 -2 -1 1 2 4 7 13 14 11 14 13 15 16 15 14 15 15 14 14 14 13 13 14 14 15 16 16 15
-4 -4 -3 -3 -3 -2 -1 0 2 4 8 11 9 13 11 13 14 14 14 14 15 13 13 13 13 13 13 14 15 15 15 15
-4 -4 -4 -4 -4 -3 -2 -1 0 1 4 6 6 6 7 9 12 13 12 15 12 12 13 13 12 12 12 12 12 14 14 14
-4 -5 -5 -5 -4 -4 -4 -3 -1 -0 2 3 3 3 3 6 9 10 12 11 11 11 12 12 12 12 12 12 12 12 12 12
-5 -5 -5 -5 -5 -5 -5 -4 -3 -2 0 3 0 2 1 4 6 6 8 11 8 9 11 11 11 11 11 10 10 12 12 11
-5 -5 -5 -6 -5 -5 -5 -4 -1 1 1 1 3 1 0 6 8 8 4 6 9 11 12 12 12 9 9 9 9 9 10 11
-5 -5 -5 -5 -5 -4 -4 -4 -2 -2 -1 3 4 3 2 5 7 5 1 5 8 9 11 12 12 10 8 8 8 8 8 9
-5 -5 -5 -6 -5 -5 -4 -3 -2 -3 -2 -1 -2 -3 -1 1 0 1 5 8 8 9 8 9 10 9 7 5 6 6 6 7
-5 -5 -6 -6 -6 -6 -6 -5 -4 -1 -0 -1 -3 -3 -2 -1 -2 -2 2 -1 2 4 8 9 9 7 5 5 4 4 6 5
-5 -6 -6 -7 -7 -7 -6 -6 -5 -3 -2 -3 1 -1 2 3 4 6 6 4 1 3 3 3 4 2 3 2 4 5 5 6
-5 -6 -6 -7 -7 -7 -6 -6 -6 -4 -4 -5 -4 -5 -3 0 3 2 1 0 0 -1 1 1 2 2 2 2 3 4 5 6

GFSFLT1_850_temp_141.txt.gz
Temp
8 8 8 8 10 10 10 11 12 15 16 16 16 15 16 15 16 17 15 16 16 16 16 16 16 15 15 15 15 15 15 15
5 7 8 9 10 8 7 7 10 11 14 13 15 15 16 16 16 16 16 15 16 16 16 16 16 15 16 16 15 15 15 16
1 2 3 4 4 5 5 4 5 8 9 11 11 13 14 16 15 15 15 16 15 16 16 16 16 15 15 16 15 15 15 15
0 1 2 3 1 0 2 2 2 5 7 9 12 13 13 15 15 14 15 15 15 16 16 16 16 15 15 16 16 15 15 14
-1 -0 -0 -1 -1 0 0 1 1 2 4 7 8 9 11 13 15 15 15 15 15 15 16 16 16 16 15 15 16 16 15 15
-1 -2 -3 -2 -1 -1 -1 -0 1 1 1 3 6 8 11 12 13 14 15 15 14 14 15 16 16 16 15 15 15 15 15 15
-2 -3 -3 -2 -1 -2 -2 -2 -1 -0 1 2 3 4 9 11 12 12 14 14 14 14 14 16 16 16 15 16 16 16 16 15
-3 -3 -3 -3 -2 -3 -3 -3 -1 -1 0 1 3 3 6 8 10 12 12 12 14 13 13 15 15 15 15 16 16 16 16 15
-2 -3 -3 -3 -3 -4 -4 -3 -3 -1 -0 1 2 2 4 6 8 11 12 12 12 11 12 14 15 14 15 14 15 16 16 15
-3 -4 -4 -3 -4 -4 -4 -4 -4 -2 -1 -1 0 1 3 5 7 10 11 11 12 11 11 12 15 14 13 14 13 15 16 16
-3 -4 -4 -4 -5 -5 -4 -4 -4 -4 -2 -2 -1 -0 0 2 6 8 9 10 12 11 10 11 14 14 13 14 13 14 14 14
-4 -5 -4 -4 -5 -5 -5 -4 -4 -4 -3 -3 -2 -1 -1 0 6 4 6 8 11 10 10 12 14 14 12 13 14 13 13 14
-5 -5 -5 -4 -5 -5 -5 -5 -4 -4 -4 -3 -3 -3 -3 -1 4 3 4 8 8 9 11 8 13 13 13 13 13 13 12 13
-4 -5 -5 -6 -5 -5 -6 -6 -4 -4 -4 -4 -4 -4 -3 -1 1 1 3 4 5 7 8 0 10 12 11 12 12 11 12 12
-4 -5 -6 -6 -6 -6 -6 -6 -5 -5 -4 -5 -5 -4 -4 -3 -2 1 1 2 3 4 5 2 1 7 11 11 11 11 12 11
-4 -5 -6 -7 -7 -7 -6 -5 -5 -5 -5 -5 -5 -5 -4 -4 -2 -1 1 1 -0 2 2 4 3 2 5 6 6 10 10 10
-5 -6 -6 -8 -8 -7 -8 -7 -6 -6 -6 -6 -5 -5 -4 -4 -3 -0 1 1 1 -0 0 0 3 1 3 3 3 6 7 7
-6 -6 -6 -8 -8 -8 -8 -8 -7 -7 -7 -6 -6 -5 -5 -5 -4 -2 -0 1 1 -1 -2 -2 -0 2 3 4 5 4 3 5
-6 -7 -7 -8 -9 -8 -8 -8 -8 -8 -7 -7 -7 -7 -6 -5 -4 -2 -1 -1 -2 -4 -3 -3 -3 1 2 4 2 2 2 3